Location: Franzen
(48.6167°N, 15.3833°E)
Time: 10:27:06
(UTC+00:00)

Cosmos 540 Rocket - Pass Details

Date: 22 April 2021
Orbit: 741 x 753 km, 74.1° (Epoch: 16 May)

Event Time Altitude Azimuth Distance (km) Brightness Sun altitude
Rises 21:03:41 0° 335° (NNW) 3,196 8.1 -23.9°
Reaches altitude 10° 21:06:03 10° 334° (NNW) 2,267 7.0 -24.1°
Maximum altitude 21:11:10 76° 250° (WSW) 770 3.4 -24.6°
Enters shadow 21:11:41 68° 200° (SSW) 799 3.3 -24.6°
